Mt. Clemens, MI

11:30 AM EDT on April 27, 2017 (GMT -0400)
Selfridge Angb

Weather History for KMTC - September, 2013

Change the Weather History Date:

Friday, September 13, 2013

  Actual Average Record
Temperature  
Mean Temperature 52 °F -  
Max Temperature 60 °F 73 °F 91 °F (1952)
Min Temperature 45 °F 55 °F 36 °F (1964)
Degree Days  
Heating Degree Days 13    
Growing Degree Days 2 (Base 50)    
Moisture  
Dew Point 45 °F    
Average Humidity 70    
Maximum Humidity 84    
Minimum Humidity 53    
Precipitation  
Precipitation 0.00 in - - ()
Sea Level Pressure  
Sea Level Pressure 30.04 in    
Wind  
Wind Speed 13 mph (NNW)    
Max Wind Speed 26 mph    
Max Gust Speed 29 mph    
Visibility 11 miles    
Events      
Averages and records for this station are not official NWS values.
T = Trace of Precipitation, MM = Missing Value Source: NWS Daily Summary

Daily Weather History Graph

Daily Weather History Graph

Search for Another Location

Airport or City:

Trip Planner

Search our weather history database for the weather conditions in past years. The results will help you decide how hot, cold, wet, or windy it might be!

Date:

Astronomy

Sep. 13, 2013 Rise Set
Actual Time 7:09 AM EDT 7:44 PM EDT
Civil Twilight 6:40 AM EDT 8:12 PM EDT
Nautical Twilight 6:07 AM EDT 8:46 PM EDT
Astronomical Twilight 5:32 AM EDT 9:20 PM EDT
Moon 3:38 PM EDT (9/13) 12:31 AM EDT (9/13)
Length of Visible Light 13h 31m
Length of Day
12h 34m
First Quarter, 61% of the Moon is Illuminated
Sep 13
First Quarter
Sep 19
Full
Sep 26
Last Quarter
Oct 4
New
Oct 11
First Quarter

Hourly Weather History & Observations

Time (EDT) Temp. Windchill Dew Point Humidity Pressure Visibility Wind Dir Wind Speed Gust Speed Precip Events Conditions
12:58 AM 56.8 °F - 47.5 °F 71% 29.94 in 10.0 mi NW 8.1 mph - N/A   Overcast
1:58 AM 56.5 °F - 47.1 °F 71% 29.94 in 10.0 mi NW 10.4 mph - N/A   Overcast
2:58 AM 55.6 °F - 46.9 °F 73% 29.94 in 10.0 mi NW 10.4 mph - N/A   Overcast
3:58 AM 55.0 °F - 46.6 °F 73% 29.94 in 10.0 mi NW 11.5 mph - N/A   Mostly Cloudy
4:58 AM 54.7 °F - 46.9 °F 75% 29.95 in 10.0 mi NW 11.5 mph - N/A   Mostly Cloudy
5:53 AM 55.4 °F - 48.2 °F 77% 29.95 in 10.0 mi NNW 13.8 mph - N/A   Mostly Cloudy
5:58 AM 54.5 °F - 48.7 °F 81% 29.96 in 10.0 mi NNW 15.0 mph 21.9 mph N/A   Mostly Cloudy
6:58 AM 53.6 °F - 48.9 °F 84% 29.98 in 10.0 mi NNW 11.5 mph - N/A   Overcast
7:55 AM 53.1 °F - 48.0 °F 83% 30.00 in 10.0 mi NNW 8.1 mph - N/A   Mostly Cloudy
8:55 AM 54.0 °F - 48.0 °F 80% 30.01 in 12.0 mi NNW 11.5 mph - N/A   Overcast
9:55 AM 56.3 °F - 46.9 °F 71% 30.03 in 12.0 mi NNW 17.3 mph 23.0 mph N/A   Overcast
10:17 AM 57.2 °F - 46.4 °F 67% 30.02 in 12.0 mi North 19.6 mph 28.8 mph N/A   Overcast
10:50 AM 59.0 °F - 46.4 °F 63% 30.03 in 12.0 mi North 17.3 mph 23.0 mph N/A   Overcast
10:55 AM 56.8 °F - 48.9 °F 75% 30.06 in 12.0 mi NNW 18.4 mph 24.2 mph N/A   Overcast
11:22 AM 57.2 °F - 48.2 °F 72% 30.04 in 12.0 mi NNW 19.6 mph 26.5 mph N/A   Mostly Cloudy
11:55 AM 59.4 °F - 47.8 °F 66% 30.07 in 12.0 mi North 17.3 mph 24.2 mph N/A   Scattered Clouds
12:55 PM 59.4 °F - 44.6 °F 58% 30.07 in 12.0 mi NW 12.7 mph - N/A   Mostly Cloudy
1:55 PM 58.3 °F - 44.1 °F 59% 30.07 in 12.0 mi North 26.5 mph - N/A   Mostly Cloudy
2:38 PM 57.2 °F - 44.6 °F 63% 30.05 in 12.0 mi NNW 18.4 mph - N/A   Light Drizzle
2:47 PM 57.2 °F - 44.6 °F 63% 30.05 in 12.0 mi North 19.6 mph 25.3 mph N/A   Mostly Cloudy
2:55 PM 57.4 °F - 44.1 °F 61% 30.08 in 12.0 mi North 17.3 mph - N/A   Mostly Cloudy
3:55 PM 56.1 °F - 43.7 °F 63% 30.09 in 12.0 mi North 21.9 mph 26.5 mph N/A   Mostly Cloudy
4:55 PM 56.5 °F - 41.4 °F 57% 30.09 in 12.0 mi North 17.3 mph - N/A   Mostly Cloudy
5:55 PM 57.0 °F - 40.1 °F 53% 30.10 in 12.0 mi North 13.8 mph - N/A   Mostly Cloudy
6:55 PM 54.5 °F - 38.5 °F 55% 30.11 in 12.0 mi NNW 13.8 mph - N/A   Scattered Clouds
7:55 PM 49.3 °F - 39.2 °F 68% 30.13 in 12.0 mi North 9.2 mph - N/A   Partly Cloudy
8:58 PM 47.3 °F - 39.4 °F 74% 30.14 in 10.0 mi North 6.9 mph - N/A   Clear
9:58 PM 46.4 °F 42.9 °F 39.6 °F 77% 30.14 in 10.0 mi NNW 6.9 mph - N/A   Clear
10:58 PM 45.3 °F 41.6 °F 39.4 °F 80% 30.14 in 10.0 mi NW 6.9 mph - N/A   Clear
11:58 PM 45.1 °F 40.8 °F 39.4 °F 80% 30.13 in 10.0 mi NNW 8.1 mph - N/A   Clear